SCP
0 0 0 0 0 0 0 0 0 0 0 0 0 0 0 0 0 0 0 0 0 0 0 0 0 0 0 0 0 0 0 0 0 0 0 0 0 0 0 0 0 0 0 0
0 0 0 0 0 0 0 0 0 0 0 0 0 0 0 0 0 0 0 0 0 0 0 0 0 0 0 0 0 0 0 0 0 0 0 0 0 0 0 0 0 0 0 0
0 0 0 0 0 0 0 0 0 0 0 0 0 0 0 0 0 0 0 0 0 0 0 0 0 0 0 0 0 0 0 0 0 0 0 0 0 0 0 0 0 0 0 0
0 0 0 0 0 0 0 0 0 0 0 0 0 0 0 0 0 0 0 0 0 0 0 0 0 0 0 0 0 0 0 0 0 0 0 0 0 0 0 0 0 0 0 0
0 0 0 0 0 0 0 0 0 0 0 0 0 0 0 0 0 0 0 0 0 0 0 0 0 0 0 0 0 0 0 0 0 0 0 0 0 0 0 0 0 0 0 0
0 0 0 0 0 0 0 0 0 0 0 0 0 0 0 0 0 0 0 0 0 0 0 0 0 0 0 0 0 0 0 0 0 0 0 0 0 0 0 0 0 0 0 0
0 0 0 0 0 0 0 0 0 0 0 0 0 0 0 0 0 0 0 0 0 0 0 0 0 0 0 0 0 0 0 0 0 0 0 0 0 0 0 0 0 0 0 0
0 0 0 0 0 0 0 0 0 0 0 0 0 0 0 0 0 0 0 0 0 0 0 0 0 0 0 0 0 0 0 0 0 0 0 0 0 0 0 0 0 0 0 0
0 0 0 0 0 0 0 0 0 0 0 0 0 0 0 0 0 0 0 0 0 0 0 0 0 0 0 0 0 0 0 0 0 0 0 0 0 0 0 0 0 0 0 0
0 0 0 0 0 0 0 0 0 0 0 0 0 0 0 0 0 0 0 0 0 0 0 0 0 0 0 0 0 0 0 0 0 0 0 0 0 0 0 0 0 0 0 0
0 0 0 0 0 0 0 0 0 0 0 0 0 0 0 0 0 0 0 0 0 0 0 0 0 0 0 0 0 0 0 0 0 0 0 0 0 0 0 0 0 0 0 0
0 0 0 0 0 0 0 0 0 0 0 0 0 0 0 0 0 0 0 0 0 0 0 0 0 0 0 0 0 0 0 0 0 0 0 0 0 0 0 0 0 0 0 0
0 0 0 0 0 0 0 0 0 0 0 0 0 0 0 0 0 0 0 0 0 0 0 0 0 0 0 0 0 0 0 0 0 0 0 0 0 0 0 0 0 0 0 0
0 0 0 0 0 0 0 0 0 0 0 0 0 0 0 0 0 0 0 0 0 0 0 0 0 0 0 0 0 0 0 0 0 0 0 0 0 0 0 0 0 0 0 0
0 0 0 0 0 0 0 0 0 0 0 0 0 0 0 0 0 0 0 0 0 0 0 0 0 0 0 0 0 0 0 0 0 0 0 0 0 0 0 0 0 0 0 0
0 0 0 0 0 0 0 0 0 0 0 0 0 0 0 0 0 0 0 0 0 0 0 0 0 0 0 0 0 0 0 0 0 0 0 0 0 0 0 0 0 0 0 0
0 0 0 0 0 0 0 0 0 0 0 0 0 0 0 0 0 0 0 0 0 0 0 0 0 0 0 0 0 0 0 0 0 0 0 0 0 0 0 0 0 0 0 0
0 0 0 0 0 0 0 0 0 0 0 0 0 0 0 0 0 0 0 0 0 0 0 0 0 0 0 0 0 0 0 0 0 0 0 0 0 0 0 0 0 0 0 0
0 0 0 0 0 0 0 0 0 0 0 0 0 0 0 0 0 0 0 0 0 0 0 0 0 0 0 0 0 0 0 0 0 0 0 0 0 0 0 0 0 0 0 0
0 0 0 0 0 0 0 0 0 0 0 0 0 0 0 0 0 0 0 0 0 0 0 0 0 0 0 0 0 0 0 0 0 0 0 0 0 0 0 0 0 0 0 0
0 0 0 0 0 0 0 0 0 0 0 0 0 0 0 0 0 0 0 0 0 0 0 0 0 0 0 0 0 0 0 0 0 0 0 0 0 0 0 0 0 0 0 0
0 0 0 0 0 0 0 0 0 0 0 0 0 0 0 0 0 0 0 0 0 0 0 0 0 0 0 0 0 0 0 0 0 0 0 0 0 0 0 0 0 0 0 0
0 0 0 0 0 0 0 0 0 0 0 0 0 0 0 0 0 0 0 0 0 0 0 0 0 0 0 0 0 0 0 0 0 0 0 0 0 0 0 0 0 0 0 0
0 0 0 0 0 0 0 0 0 0 0 0 0 0 0 0 0 0 0 0 0 0 0 0 0 0 0 0 0 0 0 0 0 0 0 0 0 0 0 0 0 0 0 0
0 0 0 0 0 0 0 0 0 0 0 0 0 0 0 0 0 0 0 0 0 0 0 0 0 0 0 0 0 0 0 0 0 0 0 0 0 0 0 0 0 0 0 0
0 0 0 0 0 0 0 0 0 0 0 0 0 0 0 0 0 0 0 0 0 0 0 0 0 0 0 0 0 0 0 0 0 0 0 0 0 0 0 0 0 0 0 0
Wind_Speed_500mb
12 16 27 46 40 18 9 14 16 10 4 8 25 29 24 16 15 16 15 13 11 10 15 19 23 30 36 40 42 45 45 47 44 41 36 30 23 17 11 10 9 7 9 8
9 31 34 2 23 23 17 22 27 14 9 10 24 31 21 22 17 20 21 20 19 20 21 26 30 35 42 46 47 46 44 42 38 33 31 29 30 38 39 36 32 28 23 20
32 9 21 20 16 25 29 31 27 21 2 12 14 32 23 10 13 18 20 23 24 26 31 35 38 40 43 44 44 44 44 43 42 43 46 49 47 44 39 35 30 29 23 21
25 11 14 20 22 25 29 25 21 19 10 21 8 17 11 18 19 24 29 31 31 32 38 44 48 52 53 55 56 57 57 56 55 50 46 41 39 38 34 29 26 24 22 23
13 19 23 20 17 28 9 12 16 13 20 14 17 14 7 12 24 27 36 37 36 36 43 50 55 59 60 60 59 56 53 50 47 42 36 32 31 31 29 27 21 19 19 19
13 1 10 11 6 11 26 15 9 4 6 16 32 27 11 14 18 33 44 44 43 42 44 49 56 58 58 56 54 51 47 45 39 34 32 27 27 28 23 20 16 17 17 19
21 21 9 10 11 5 12 21 5 9 11 15 1 23 22 9 14 39 54 58 54 51 53 57 60 59 56 52 48 43 38 38 33 27 26 26 26 24 19 18 19 20 24 27
22 16 33 30 38 21 34 27 13 12 11 5 6 16 10 6 10 26 56 59 54 51 54 59 60 58 54 49 44 39 35 33 29 25 22 19 18 17 16 18 21 25 28 30
18 15 7 7 9 27 15 20 3 8 2 5 12 8 7 8 13 30 56 60 59 58 60 62 61 58 54 47 42 36 32 30 27 23 18 15 12 14 14 13 13 18 22 25
12 10 4 9 10 3 15 23 11 10 10 12 8 11 16 21 26 32 49 64 65 62 61 63 64 61 56 49 43 36 30 26 24 19 15 9 4 6 8 11 15 21 23 28
11 11 6 12 23 35 14 15 9 7 10 8 6 9 5 20 35 43 56 68 72 70 68 67 66 63 58 52 46 40 34 25 21 16 8 2 5 7 11 17 20 26 32 38
19 2 13 21 3 4 21 22 32 15 13 9 5 9 4 4 27 49 59 68 69 67 67 66 68 68 66 59 51 44 38 31 21 13 7 4 6 9 17 25 29 33 38 43
23 12 7 4 5 6 18 23 31 27 4 21 14 10 1 5 22 41 49 61 65 63 63 64 67 71 70 63 56 49 42 33 25 17 11 4 7 14 21 26 32 36 40 46
15 11 23 28 7 11 19 30 31 30 19 24 34 14 12 14 22 36 45 56 70 74 72 69 70 73 72 66 60 53 46 35 29 21 9 4 11 19 24 30 36 40 45 50
14 18 31 30 6 4 6 27 39 42 56 32 36 36 27 31 31 49 52 49 63 69 74 86 80 79 75 70 63 56 45 38 35 23 13 10 17 24 32 38 40 44 49 58
9 8 16 25 4 2 5 14 36 42 40 35 17 19 8 21 22 26 47 60 70 77 94 92 88 86 80 77 70 59 51 46 40 28 17 16 24 30 37 40 41 46 54 63
15 13 11 9 3 8 13 34 26 21 24 27 28 18 12 12 26 41 47 60 77 85 88 96 103 92 80 74 67 62 55 51 43 32 26 26 30 35 40 40 42 51 60 64
9 13 5 6 7 13 4 2 8 29 16 20 6 5 16 17 27 33 40 56 62 62 73 84 93 81 74 65 62 60 57 51 43 37 36 33 36 38 39 39 46 55 60 65
11 4 6 7 8 9 4 11 15 15 17 25 30 15 11 8 4 17 31 39 48 60 70 78 75 69 61 63 65 59 55 48 46 47 43 39 38 39 37 41 49 54 61 68
2 6 3 5 7 14 4 4 8 3 14 16 32 16 19 23 13 12 28 28 33 34 41 47 49 52 59 63 57 52 49 52 55 49 45 41 38 37 37 45 50 56 62 67
7 4 12 10 10 9 6 13 17 12 7 10 26 24 35 11 9 4 24 33 34 36 40 43 49 54 53 48 45 48 56 59 52 50 45 40 37 34 39 45 48 55 60 64
16 18 10 9 9 17 23 13 16 6 10 20 21 28 41 33 22 24 30 35 37 38 41 46 49 47 46 46 47 52 58 55 52 49 43 40 37 36 40 43 47 52 56 61
8 9 9 15 6 4 46 3 27 21 21 25 29 32 38 40 37 35 37 38 40 40 43 49 50 50 48 46 45 48 54 56 54 48 43 41 39 38 39 41 45 51 54 58
8 5 3 4 4 6 36 20 26 22 20 25 31 35 41 46 35 34 36 34 32 38 49 55 56 52 48 45 44 48 54 56 54 48 45 43 40 38 40 41 44 47 49 52
3 18 9 3 7 9 20 52 37 35 29 20 26 35 40 36 35 31 44 42 36 35 45 58 61 57 50 43 46 55 59 59 56 50 47 46 43 42 41 41 41 43 44 48
14 13 10 8 23 19 21 45 48 54 39 40 32 37 40 36 32 35 46 51 43 41 47 60 64 64 57 50 53 60 61 59 56 53 51 50 47 44 43 42 41 36 40 42
Wind_Direction_500mb
176 201 213 214 213 240 236 216 210 209 186 238 245 253 208 193 189 191 191 180 158 141 143 139 138 133 128 129 132 136 141 140 141 141 140 146 157 161 183 155 117 135 103 89
170 228 229 232 206 207 218 238 243 268 238 224 262 253 227 199 217 207 188 174 163 140 133 141 143 142 138 135 134 134 135 136 140 146 155 156 138 121 112 110 110 104 99 92
217 200 214 193 177 197 224 231 238 253 152 231 279 264 220 186 177 171 172 164 152 145 138 137 139 140 141 140 139 139 136 137 135 132 130 127 126 118 114 109 103 92 81 70
241 202 155 192 210 198 230 213 231 245 244 262 199 284 207 196 185 186 173 167 158 149 142 137 135 133 135 132 130 130 128 127 125 126 126 126 123 120 107 96 84 73 61 48
206 175 194 198 205 191 243 149 206 226 240 270 210 261 159 173 211 195 181 173 164 157 151 143 138 135 133 132 132 131 130 127 125 126 124 120 113 104 98 89 79 69 54 39
270 188 201 207 95 192 133 102 88 114 215 252 231 218 213 204 218 180 179 177 172 165 158 151 144 139 136 136 135 134 134 130 130 129 124 117 106 99 95 84 72 58 43 30
222 225 190 173 157 88 176 155 189 226 208 250 276 211 255 221 187 185 175 176 177 172 167 161 155 149 146 143 141 139 140 134 130 126 118 113 110 107 92 76 47 29 15 5
206 231 196 191 215 188 194 194 197 221 207 210 138 225 235 129 145 175 179 176 175 175 175 170 164 158 154 151 150 149 147 141 135 127 115 103 91 74 57 40 22 2 354 346
198 239 176 205 152 173 180 213 202 100 53 262 209 228 213 151 153 165 173 175 180 182 181 177 171 167 162 160 159 159 156 149 141 133 115 94 59 51 28 1 352 326 322 320
194 243 204 156 133 168 196 147 180 216 222 232 219 253 232 199 185 175 181 185 184 184 184 182 179 174 171 169 167 166 162 157 147 135 118 100 67 23 344 328 341 320 319 319
158 226 125 154 208 186 171 189 206 210 217 221 260 230 205 200 187 186 190 189 187 187 187 186 184 181 179 178 177 175 172 169 164 155 139 94 332 350 318 329 335 327 329 330
197 189 207 203 89 333 233 219 191 201 186 238 303 247 189 203 190 188 190 192 191 190 188 188 188 187 186 186 184 184 184 178 187 180 188 237 296 334 334 338 333 327 325 324
171 191 174 227 207 177 219 207 218 233 42 203 188 224 298 182 180 190 189 191 192 192 192 192 192 192 192 191 191 192 193 188 194 202 218 255 319 333 327 326 321 319 318 318
202 173 197 223 206 144 200 207 201 203 222 210 229 215 193 183 188 190 193 194 193 194 195 195 196 196 196 197 197 198 198 195 203 214 219 277 306 315 316 316 313 313 315 316
196 224 218 245 327 307 241 193 196 208 222 217 243 228 198 192 192 198 197 193 192 196 197 201 200 199 199 200 202 203 203 205 212 216 225 261 297 305 312 314 313 314 317 318
183 228 188 240 135 300 258 224 210 219 230 239 245 237 156 198 195 190 196 192 196 200 203 201 204 204 204 204 205 205 208 212 215 220 236 267 289 301 308 309 310 313 315 316
168 158 181 184 144 161 249 215 203 203 217 217 219 233 155 179 207 215 206 200 205 206 202 203 208 207 208 209 208 211 214 214 218 228 242 262 280 294 305 305 309 314 316 318
200 160 174 134 168 211 344 79 232 221 219 222 304 232 194 222 224 231 227 222 213 207 203 205 206 208 213 212 211 214 216 218 224 235 246 258 273 289 299 304 311 314 317 318
11 126 123 168 222 349 229 204 191 175 222 198 210 209 191 213 208 251 227 224 224 220 213 213 209 213 216 213 213 214 216 222 232 240 246 257 272 289 297 305 311 316 319 320
71 27 224 165 197 213 248 165 183 142 263 202 197 181 159 150 203 229 211 208 202 195 193 196 203 205 206 206 208 211 220 230 236 241 248 259 275 289 298 309 315 318 318 318
152 162 211 197 217 261 194 160 154 162 251 161 187 167 156 194 208 178 195 191 192 195 192 190 197 199 196 197 206 219 227 233 238 243 249 262 276 287 298 306 313 316 317 316
171 168 194 188 214 247 151 125 183 170 141 162 175 193 195 196 185 171 174 182 183 186 189 195 195 193 198 205 215 224 230 234 237 243 253 264 275 281 294 304 311 314 314 314
218 208 177 202 210 335 181 103 193 170 168 184 192 195 194 177 170 167 171 182 192 201 203 201 201 200 204 214 224 230 232 234 237 243 252 261 265 277 291 301 308 312 314 315
238 177 201 129 165 238 210 215 203 208 209 207 196 194 181 178 181 190 193 189 191 203 207 207 206 210 218 227 232 233 235 237 239 243 250 257 261 275 286 297 306 310 314 314
137 145 149 277 261 287 239 221 221 221 219 205 197 193 183 189 198 214 209 200 206 213 218 217 218 221 228 237 239 238 238 238 239 244 251 256 260 270 281 293 302 307 312 314
189 160 179 205 202 192 217 228 235 228 220 214 206 201 202 207 214 219 222 217 216 218 225 223 224 227 233 240 242 240 240 240 240 244 250 253 258 268 278 288 296 303 309 308
Wind_Speed_850mb
12 16 27 46 40 18 9 14 16 10 4 8 25 29 24 16 15 16 15 13 11 10 15 19 23 30 36 40 42 45 45 47 44 41 36 30 23 17 11 10 9 7 9 8
9 31 34 2 23 23 17 22 27 14 9 10 24 31 21 22 17 20 21 20 19 20 21 26 30 35 42 46 47 46 44 42 38 33 31 29 30 38 39 36 32 28 23 20
32 9 21 20 16 25 29 31 27 21 2 12 14 32 23 10 13 18 20 23 24 26 31 35 38 40 43 44 44 44 44 43 42 43 46 49 47 44 39 35 30 29 23 21
25 11 14 20 22 25 29 25 21 19 10 21 8 17 11 18 19 24 29 31 31 32 38 44 48 52 53 55 56 57 57 56 55 50 46 41 39 38 34 29 26 24 22 23
13 19 23 20 17 28 9 12 16 13 20 14 17 14 7 12 24 27 36 37 36 36 43 50 55 59 60 60 59 56 53 50 47 42 36 32 31 31 29 27 21 19 19 19
13 1 10 11 6 11 26 15 9 4 6 16 32 27 11 14 18 33 44 44 43 42 44 49 56 58 58 56 54 51 47 45 39 34 32 27 27 28 23 20 16 17 17 19
21 21 9 10 11 5 12 21 5 9 11 15 1 23 22 9 14 39 54 58 54 51 53 57 60 59 56 52 48 43 38 38 33 27 26 26 26 24 19 18 19 20 24 27
22 16 33 30 38 21 34 27 13 12 11 5 6 16 10 6 10 26 56 59 54 51 54 59 60 58 54 49 44 39 35 33 29 25 22 19 18 17 16 18 21 25 28 30
18 15 7 7 9 27 15 20 3 8 2 5 12 8 7 8 13 30 56 60 59 58 60 62 61 58 54 47 42 36 32 30 27 23 18 15 12 14 14 13 13 18 22 25
12 10 4 9 10 3 15 23 11 10 10 12 8 11 16 21 26 32 49 64 65 62 61 63 64 61 56 49 43 36 30 26 24 19 15 9 4 6 8 11 15 21 23 28
11 11 6 12 23 35 14 15 9 7 10 8 6 9 5 20 35 43 56 68 72 70 68 67 66 63 58 52 46 40 34 25 21 16 8 2 5 7 11 17 20 26 32 38
19 2 13 21 3 4 21 22 32 15 13 9 5 9 4 4 27 49 59 68 69 67 67 66 68 68 66 59 51 44 38 31 21 13 7 4 6 9 17 25 29 33 38 43
23 12 7 4 5 6 18 23 31 27 4 21 14 10 1 5 22 41 49 61 65 63 63 64 67 71 70 63 56 49 42 33 25 17 11 4 7 14 21 26 32 36 40 46
15 11 23 28 7 11 19 30 31 30 19 24 34 14 12 14 22 36 45 56 70 74 72 69 70 73 72 66 60 53 46 35 29 21 9 4 11 19 24 30 36 40 45 50
14 18 31 30 6 4 6 27 39 42 56 32 36 36 27 31 31 49 52 49 63 69 74 86 80 79 75 70 63 56 45 38 35 23 13 10 17 24 32 38 40 44 49 58
9 8 16 25 4 2 5 14 36 42 40 35 17 19 8 21 22 26 47 60 70 77 94 92 88 86 80 77 70 59 51 46 40 28 17 16 24 30 37 40 41 46 54 63
15 13 11 9 3 8 13 34 26 21 24 27 28 18 12 12 26 41 47 60 77 85 88 96 103 92 80 74 67 62 55 51 43 32 26 26 30 35 40 40 42 51 60 64
9 13 5 6 7 13 4 2 8 29 16 20 6 5 16 17 27 33 40 56 62 62 73 84 93 81 74 65 62 60 57 51 43 37 36 33 36 38 39 39 46 55 60 65
11 4 6 7 8 9 4 11 15 15 17 25 30 15 11 8 4 17 31 39 48 60 70 78 75 69 61 63 65 59 55 48 46 47 43 39 38 39 37 41 49 54 61 68
2 6 3 5 7 14 4 4 8 3 14 16 32 16 19 23 13 12 28 28 33 34 41 47 49 52 59 63 57 52 49 52 55 49 45 41 38 37 37 45 50 56 62 67
7 4 12 10 10 9 6 13 17 12 7 10 26 24 35 11 9 4 24 33 34 36 40 43 49 54 53 48 45 48 56 59 52 50 45 40 37 34 39 45 48 55 60 64
16 18 10 9 9 17 23 13 16 6 10 20 21 28 41 33 22 24 30 35 37 38 41 46 49 47 46 46 47 52 58 55 52 49 43 40 37 36 40 43 47 52 56 61
8 9 9 15 6 4 46 3 27 21 21 25 29 32 38 40 37 35 37 38 40 40 43 49 50 50 48 46 45 48 54 56 54 48 43 41 39 38 39 41 45 51 54 58
8 5 3 4 4 6 36 20 26 22 20 25 31 35 41 46 35 34 36 34 32 38 49 55 56 52 48 45 44 48 54 56 54 48 45 43 40 38 40 41 44 47 49 52
3 18 9 3 7 9 20 52 37 35 29 20 26 35 40 36 35 31 44 42 36 35 45 58 61 57 50 43 46 55 59 59 56 50 47 46 43 42 41 41 41 43 44 48
14 13 10 8 23 19 21 45 48 54 39 40 32 37 40 36 32 35 46 51 43 41 47 60 64 64 57 50 53 60 61 59 56 53 51 50 47 44 43 42 41 36 40 42
Wind_Direction_850mb
176 201 213 214 213 240 236 216 210 209 186 238 245 253 208 193 189 191 191 180 158 141 143 139 138 133 128 129 132 136 141 140 141 141 140 146 157 161 183 155 117 135 103 89
170 228 229 232 206 207 218 238 243 268 238 224 262 253 227 199 217 207 188 174 163 140 133 141 143 142 138 135 134 134 135 136 140 146 155 156 138 121 112 110 110 104 99 92
217 200 214 193 177 197 224 231 238 253 152 231 279 264 220 186 177 171 172 164 152 145 138 137 139 140 141 140 139 139 136 137 135 132 130 127 126 118 114 109 103 92 81 70
241 202 155 192 210 198 230 213 231 245 244 262 199 284 207 196 185 186 173 167 158 149 142 137 135 133 135 132 130 130 128 127 125 126 126 126 123 120 107 96 84 73 61 48
206 175 194 198 205 191 243 149 206 226 240 270 210 261 159 173 211 195 181 173 164 157 151 143 138 135 133 132 132 131 130 127 125 126 124 120 113 104 98 89 79 69 54 39
270 188 201 207 95 192 133 102 88 114 215 252 231 218 213 204 218 180 179 177 172 165 158 151 144 139 136 136 135 134 134 130 130 129 124 117 106 99 95 84 72 58 43 30
222 225 190 173 157 88 176 155 189 226 208 250 276 211 255 221 187 185 175 176 177 172 167 161 155 149 146 143 141 139 140 134 130 126 118 113 110 107 92 76 47 29 15 5
206 231 196 191 215 188 194 194 197 221 207 210 138 225 235 129 145 175 179 176 175 175 175 170 164 158 154 151 150 149 147 141 135 127 115 103 91 74 57 40 22 2 354 346
198 239 176 205 152 173 180 213 202 100 53 262 209 228 213 151 153 165 173 175 180 182 181 177 171 167 162 160 159 159 156 149 141 133 115 94 59 51 28 1 352 326 322 320
194 243 204 156 133 168 196 147 180 216 222 232 219 253 232 199 185 175 181 185 184 184 184 182 179 174 171 169 167 166 162 157 147 135 118 100 67 23 344 328 341 320 319 319
158 226 125 154 208 186 171 189 206 210 217 221 260 230 205 200 187 186 190 189 187 187 187 186 184 181 179 178 177 175 172 169 164 155 139 94 332 350 318 329 335 327 329 330
197 189 207 203 89 333 233 219 191 201 186 238 303 247 189 203 190 188 190 192 191 190 188 188 188 187 186 186 184 184 184 178 187 180 188 237 296 334 334 338 333 327 325 324
171 191 174 227 207 177 219 207 218 233 42 203 188 224 298 182 180 190 189 191 192 192 192 192 192 192 192 191 191 192 193 188 194 202 218 255 319 333 327 326 321 319 318 318
202 173 197 223 206 144 200 207 201 203 222 210 229 215 193 183 188 190 193 194 193 194 195 195 196 196 196 197 197 198 198 195 203 214 219 277 306 315 316 316 313 313 315 316
196 224 218 245 327 307 241 193 196 208 222 217 243 228 198 192 192 198 197 193 192 196 197 201 200 199 199 200 202 203 203 205 212 216 225 261 297 305 312 314 313 314 317 318
183 228 188 240 135 300 258 224 210 219 230 239 245 237 156 198 195 190 196 192 196 200 203 201 204 204 204 204 205 205 208 212 215 220 236 267 289 301 308 309 310 313 315 316
168 158 181 184 144 161 249 215 203 203 217 217 219 233 155 179 207 215 206 200 205 206 202 203 208 207 208 209 208 211 214 214 218 228 242 262 280 294 305 305 309 314 316 318
200 160 174 134 168 211 344 79 232 221 219 222 304 232 194 222 224 231 227 222 213 207 203 205 206 208 213 212 211 214 216 218 224 235 246 258 273 289 299 304 311 314 317 318
11 126 123 168 222 349 229 204 191 175 222 198 210 209 191 213 208 251 227 224 224 220 213 213 209 213 216 213 213 214 216 222 232 240 246 257 272 289 297 305 311 316 319 320
71 27 224 165 197 213 248 165 183 142 263 202 197 181 159 150 203 229 211 208 202 195 193 196 203 205 206 206 208 211 220 230 236 241 248 259 275 289 298 309 315 318 318 318
152 162 211 197 217 261 194 160 154 162 251 161 187 167 156 194 208 178 195 191 192 195 192 190 197 199 196 197 206 219 227 233 238 243 249 262 276 287 298 306 313 316 317 316
171 168 194 188 214 247 151 125 183 170 141 162 175 193 195 196 185 171 174 182 183 186 189 195 195 193 198 205 215 224 230 234 237 243 253 264 275 281 294 304 311 314 314 314
218 208 177 202 210 335 181 103 193 170 168 184 192 195 194 177 170 167 171 182 192 201 203 201 201 200 204 214 224 230 232 234 237 243 252 261 265 277 291 301 308 312 314 315
238 177 201 129 165 238 210 215 203 208 209 207 196 194 181 178 181 190 193 189 191 203 207 207 206 210 218 227 232 233 235 237 239 243 250 257 261 275 286 297 306 310 314 314
137 145 149 277 261 287 239 221 221 221 219 205 197 193 183 189 198 214 209 200 206 213 218 217 218 221 228 237 239 238 238 238 239 244 251 256 260 270 281 293 302 307 312 314
189 160 179 205 202 192 217 228 235 228 220 214 206 201 202 207 214 219 222 217 216 218 225 223 224 227 233 240 242 240 240 240 240 244 250 253 258 268 278 288 296 303 309 308